DELTA 1 DEB, 2977

Orbit data source: Space-Track

DELTA 1 DEB, 2977 is space debris in SSO originally from a launch on Thu, 20 Apr 1967 UTC launched from the Air Force Western Test Range (AFWTR). Debris objects in space refer to the collection of defunct objects orbiting the Earth. Examples of debris include non-operational satellites, rocket bodies, and fragments generated from explosions, collisions, or faulty payload assembly.

Loading next visibility...
DELTA 1 DEB details
Identifier
2977, 1967-036D
Orbit
SSO
Last TLE update2 days ago
Origin
Flag of USESSA (US)
ManufacturerUnknown
MissionSpacecraft
Bus & MotorUnknown
MassUnknown
Launch date (UTC)
1967-04-20 (58 years ago)
Launch vehicleUnknown
Launch site
Air Force Western Test Range (AFWTR)
Object type
Payload
Rocket body
Debris
Shape & HBRUnknown
Radar Cross SectionSmall (<0.1 m²)

Expand to show TLE details & history

TLE from 2 days ago
0 DELTA 1 DEB
1 02977U 67036D   24354.84446385 -.00000026  00000-0  10903-3 0  9992
2 02977 101.5343 317.8022 0059405 252.1020 183.4163 12.56841571645003
Epoch: 2024-12-19T20:16Z
Definitive object data (Epoch: 2024-12-19T20:16:01.676Z)
Latitude71.60307°
Longitude-112.75509°
Altitude1,494.56 km
Speed7.102 km/s
True Right ascension18h 40m 40s
True Declination71° 30' 34"
Sunlit
Object was in daylight at TLE epoch
Visualization TLE readout
Latitude27.65263°
Longitude113.33597°
Altitude1,443.399 km
Speed7.14 km/s
Apparent Right ascension12h 29m 34s
Apparent Declination-3° 44' 30"
Sunlit
Object is in full shadow
Visualization observer readout
Local Sidereal Time05:03:52
Azimuth78.805° E
Elevation-18.751°
Doppler factor1
Orbital elements
Apogee altitude1,479.939 km
Perigee altitude1,387.128 km
Semi-major axis7,811.671 km
Eccentricity0.0059405
Inclination101.5343°
RAAN317.8022°
Arg. of periapsis252.102°
True anomaly183.37603°
Mean anomaly183.4163°
Eccentric anomaly183.39614°
Mean motion3.1436 °/min
BSTAR0.00010903
Orbital period114.52 mins
Loading maneuver chart data...
Loading historical data...
Loading historical data...
Loading historical data...
Loading historical data...
Loading historical data...
Loading historical data...
Loading historical data...
Other satellites on launch #36 in the year 1967 (1967-04-20 UTC)

DELTA 1 DEB Visibility forecast

Observer location: undefined°, undefined

Span
Click to sort rows by Start time (UTC) header in descending order
Start Az.
Max El. time (UTC)
Max El. Az.
Max El.
End time (UTC)
End Az.
14 mins2024-12-22 09:38:11.824Z35.25° NE2024-12-22 09:45:11.824Z95.241° ESE29.686°2024-12-22 09:52:11.824Z158.605° S
14 mins2024-12-22 11:31:11.824Z5.413° NNE2024-12-22 11:38:11.824Z291.692° WNW38.364°2024-12-22 11:45:11.824Z224.163° SW
14 mins2024-12-22 20:35:11.824Z127.833° SE2024-12-22 20:42:11.824Z56.914° ENE35.301°2024-12-22 20:49:11.824Z355.77° N
14 mins2024-12-22 22:28:11.824Z197.98° SSW2024-12-22 22:34:11.824Z258.269° W33.787°2024-12-22 22:42:11.824Z329.458° NNW
|